Regional Weather Roundup
Issued by NWS Goodland, KS

Home | Current Version | Previous Version | Graphics & Text | Print | Product List | Glossary On
Versions: 1 2 3 4 5 6 7 8 9 10 11 12 13 14 15 16 17 18 19 20 21 22 23 24 25 26 27 28 29 30 31 32 33 34 35 36 37 38 39 40 41 42 43 44 45 46 47 48 49 50
000
ASUS43 KGLD 201059
RWRGLD

GOODLAND FORECAST AREA HOURLY WEATHER ROUNDUP
NATIONAL WEATHER SERVICE GOODLAND KS
400 AM MST SAT DEC 20 2014

...OFFICIAL OBSERVATIONS...

CITY           SKY/WX    TMP DP  RH WIND       PRES   REMARKS
GOODLAND KS    CLEAR     29  26  89 W8        30.02F
HILL CITY KS   PTCLDY    29  25  85 W5        30.05S
IMPERIAL NEB   CLEAR     20  15  81 W6        30.01F
MCCOOK NEB     CLEAR     22  20  92 SW6       30.03F
AKRON CO       PTCLDY    26  19  74 SW10      29.99S WCI  16
BURLINGTON CO  CLEAR     26  22  84 W8        30.01F
LIMON CO       PTCLDY    14  12  92 N10       30.02S WCI   1
$$

...UNOFFICIAL OBSERVATIONS...

CITY           SKY/WX    TMP DP  RH WIND       PRES   REMARKS
COLBY KS       CLEAR     27  27 100 W9        30.03F
GOVE KS          N/A     24  32 100 MISG        N/A
NORTON KS      CLEAR     25  21  86 SW7       30.03F
SHARON SPRINGS   N/A     28  26  92 W5          N/A
TRIBUNE KS     CLOUDY    30  30 100 NW6       30.04S
KIT CARSON CO    N/A     22  20  90 MISG        N/A
$$


USA.gov is the U.S. government's official web portal to all federal, state and local government web resources and services.